Ketchikan, AK

11:25 PM AKST on December 15, 2018 (GMT -0900)
Ketchikan International

Weather History for PAKT - September, 2018

Change the Weather History Date:

Saturday, September 15, 2018

  Actual Average Record
Temperature  
Mean Temperature 52 °F -  
Max Temperature 64 °F 59 °F 76 °F (1967)
Min Temperature 39 °F 46 °F 35 °F (2006)
Degree Days  
Heating Degree Days 13    
Growing Degree Days 2 (Base 50)    
Moisture  
Dew Point 29 °F    
Average Humidity 42    
Maximum Humidity 77    
Minimum Humidity 23    
Precipitation  
Precipitation 0.00 in - - ()
Sea Level Pressure  
Sea Level Pressure 29.95 in    
Wind  
Wind Speed 5 mph (NW)    
Max Wind Speed 12 mph    
Max Gust Speed 20 mph    
Visibility 10 miles    
Events      
Averages and records for this station are not official NWS values.
T = Trace of Precipitation, MM = Missing Value Source: NWS Daily Summary

Daily Weather History Graph

Daily Weather History Graph

Search for Another Location

Airport or City:

Astronomy

Sep. 15, 2018 Rise Set
Actual Time 6:19 AM AKDT 7:03 PM AKDT
Civil Twilight 5:42 AM AKDT 7:40 PM AKDT
Nautical Twilight 4:57 AM AKDT 8:24 PM AKDT
Astronomical Twilight 4:09 AM AKDT 9:12 PM AKDT
Moon 1:41 PM AKDT (9/15) 10:06 PM AKDT (9/15)
Length of Visible Light 13h 57m
Length of Day
12h 44m
Waxing Crescent, 39% of the Moon is Illuminated
Sep 15
Waxing Crescent
Sep 16
First Quarter
Sep 24
Full
Oct 2
Last Quarter
Oct 8
New

Hourly Weather History & Observations

Time (AKDT) Temp. Windchill Dew Point Humidity Pressure Visibility Wind Dir Wind Speed Gust Speed Precip Events Conditions
12:53 AM 51.1 °F - 30.9 °F 46% 29.96 in 10.0 mi West 3.5 mph - N/A   Clear
1:53 AM 48.9 °F - 30.9 °F 50% 29.97 in 10.0 mi Calm Calm - N/A   Clear
2:53 AM 48.0 °F - 32.0 °F 54% 29.97 in 10.0 mi WNW 4.6 mph - N/A   Clear
3:53 AM 48.9 °F - 30.0 °F 48% 29.97 in 10.0 mi NW 6.9 mph - N/A   Clear
4:53 AM 46.9 °F - 32.0 °F 56% 29.96 in 10.0 mi NW 6.9 mph - N/A   Clear
5:53 AM 48.0 °F - 28.0 °F 46% 29.96 in 10.0 mi Calm Calm - N/A   Clear
6:22 AM 48.9 °F - 30.0 °F 48% 29.95 in 10.0 mi North 5.8 mph - N/A   Clear
6:53 AM 48.2 °F - 26.6 °F 43% 29.96 in 10.0 mi West 3.5 mph - N/A   Clear
7:53 AM 53.6 °F - 28.4 °F 38% 29.96 in 10.0 mi Variable 4.6 mph - N/A   Clear
8:53 AM 55.4 °F - 28.4 °F 36% 29.96 in 10.0 mi NNW 9.2 mph - N/A   Clear
9:53 AM 57.2 °F - 24.8 °F 29% 29.96 in 10.0 mi Variable 5.8 mph - N/A   Clear
10:53 AM 59.0 °F - 24.8 °F 27% 29.95 in 10.0 mi ESE 11.5 mph 19.6 mph N/A   Clear
11:53 AM 60.8 °F - 23.0 °F 23% 29.94 in 10.0 mi Variable 4.6 mph - N/A   Clear
12:53 PM 60.8 °F - 24.8 °F 25% 29.93 in 10.0 mi NNW 10.4 mph - N/A   Clear
1:53 PM 62.6 °F - 24.8 °F 24% 29.92 in 10.0 mi NNW 10.4 mph 17.3 mph N/A   Clear
2:53 PM 62.6 °F - 24.8 °F 24% 29.91 in 10.0 mi NNW 10.4 mph 19.6 mph N/A   Clear
3:53 PM 62.6 °F - 24.8 °F 24% 29.91 in 10.0 mi NNW 3.5 mph - N/A   Clear
4:53 PM 62.6 °F - 24.8 °F 24% 29.92 in 10.0 mi East 6.9 mph - N/A   Partly Cloudy
5:53 PM 60.8 °F - 26.6 °F 27% 29.93 in 10.0 mi ESE 11.5 mph - N/A   Mostly Cloudy
6:53 PM 55.4 °F - 30.2 °F 38% 29.94 in 10.0 mi South 4.6 mph - N/A   Scattered Clouds
7:53 PM 48.9 °F - 35.1 °F 59% 29.95 in 10.0 mi Calm Calm - N/A   Mostly Cloudy
8:53 PM 50.0 °F - 32.0 °F 50% 29.95 in 10.0 mi SSE 4.6 mph - N/A   Clear
9:53 PM 43.0 °F 41.3 °F 32.0 °F 65% 29.96 in 10.0 mi WNW 3.5 mph - N/A   Clear
10:53 PM 42.1 °F - 33.1 °F 70% 29.96 in 10.0 mi Calm Calm - N/A   Clear
11:53 PM 39.9 °F - 33.1 °F 77% 29.96 in 10.0 mi Calm Calm - N/A   Clear